Regional Weather Roundup
Issued by NWS

Home | Current Version | Previous Version | Graphics & Text | Print | Product List | Glossary On
Versions: 1 2 3 4 5 6 7 8 9 10 11 12 13 14 15 16 17 18 19 20 21 22 23 24 25 26 27 28 29 30 31 32 33 34 35 36 37 38 39 40 41 42 43 44 45 46 47 48 49 50
000
ASUS43 KMPX 051210
RWRMN
WEATHER ROUNDUP FOR MINNESOTA
NATIONAL WEATHER SERVICE TWIN CITIES/CHANHASSEN MN
600 AM CST THU MAR 05 2015


NOTE: "FAIR" INDICATES FEW OR NO CLOUDS BELOW 12,000 FEET WITH NO
SIGNIFICANT WEATHER AND/OR OBSTRUCTIONS TO VISIBILITY. N/A MEANS
CURRENT SKY AND/OR WEATHER CONDITIONS ARE NOT AVAILABLE.

MNZ060>063-068>070-051300-
   Twin Cities Metro

CITY           SKY/WX    TMP DP  RH WIND       PRES   REMARKS
TWIN CITIES    CLEAR     -6 -12  75 W5        30.47R WCI -17
6HR MIN TEMP:  -6; 6HR MAX TEMP:  -2;

ST PAUL        CLEAR     -5 -12  72 N5        30.49R WCI -16
CRYSTAL        CLEAR     -7 -13  75 CALM      30.46R
BLAINE         CLEAR     -9 -15  77 CALM      30.45R
LAKEVILLE      CLEAR     -9 -15  77 W3        30.45R
EDEN PRAIRIE   FAIR      -8 -14  74 CALM      30.46R
6HR MIN TEMP:  -9; 6HR MAX TEMP:  -2;

SOUTH ST PAUL  FAIR      -7 -13  75 CALM      30.47R
LAKE ELMO      FAIR     -11 -15  84 CALM      30.46R
$$
MNZ001>005-007-008-013>017-022>024-027-028-051300-
   Northwest Minnesota

CITY           SKY/WX    TMP DP  RH WIND       PRES   REMARKS
BEMIDJI        FAIR     -16 -21  78 SW3       30.31S
HALLOCK        MOCLDY   -13 -20  70 S10       30.31F WCI -32
ROSEAU         MOCLDY   -15 -20  76 S9        30.29F WCI -33
WARROAD        MOCLDY   -17 -22  76 SW6       30.28F WCI -31
THIEF RVR FALL MOCLDY   -15 N/A N/A S7        30.31F WCI -31
CROOKSTON      MOCLDY   -11 -17  77 S7        30.37F WCI -26
FOSSTON        MOCLDY   -20 -26  76 S6        30.33S WCI -36
DETROIT LAKES  MOCLDY   -15 -18  84 CALM      30.35F
MOORHEAD       PTCLDY    -8 -11  84 S6        30.41S WCI -21
PARK RAPIDS    MOCLDY   -19 -26  70 W3        30.32S
MAHNOMEN       FAIR     -13 -17  80 S7        30.35S WCI -29
$$
MNZ006-009>011-018-025>026-051300-
   North Central Minnesota

CITY           SKY/WX    TMP DP  RH WIND       PRES   REMARKS
BAUDETTE       MOCLDY   -18 -23  77 S5        30.28F WCI -31
FLAG ISLAND    PTCLDY   -18 -24  76 S5        30.27S WCI -31
INTL FALLS     PTCLDY   -24 -29  77 SW3       30.31S
6HR MIN TEMP: -24; 6HR MAX TEMP: -14;

WASKISH        MOCLDY   -17 -20  83 CALM      30.32S
BIG FORK       MOCLDY   -29 -36  68 CALM      30.31S
LONGVILLE      MOCLDY   -29 -35  75 CALM      30.34S
GRAND RAPIDS   CLOUDY   -20 -29  63 CALM      30.30S
CRANE LAKE     PTCLDY   -29 -35  75 CALM      30.35S
ORR            MOCLDY   -18 -26  69 CALM      30.28R
COOK           MOCLDY   -31 -36  75 CALM      30.31S
WALKER         FAIR     -18 -24  76 CALM      30.33S
$$
MNZ012-019>021-037-051300-
   Northeast Minnesota

CITY           SKY/WX    TMP DP  RH WIND       PRES   REMARKS
DULUTH         PTCLDY   -13 -19  75 NW6       30.31R WCI -27
6HR MIN TEMP: -14; 6HR MAX TEMP: -10;

ELY            PTCLDY   -26 -29  83 CALM      30.29S
HIBBING        FAIR     -29 -36  69 CALM      30.32R
EVELETH        MOCLDY   -26 -33  68 CALM      30.33R
DULUTH HARBOR  PTCLDY   -11 -18  70 CALM      30.44R
TWO HARBORS    PTCLDY   -13 -20  70 CALM      30.32R
SILVER BAY     CLEAR    -22 -29  69 CALM      30.31S
GRAND MARAIS     N/A     -5 -15  62 NW12G18   30.35R WCI -23
G MARAIS ARPRT CLEAR    -17 -24  70 NW5       30.21R WCI -29
$$
MNZ029>031-032-039>041-046>048-054>057-064-051300-
   West Central Minnesota

CITY           SKY/WX    TMP DP  RH WIND       PRES   REMARKS
FERGUS FALLS   PTCLDY   -11 -18  70 S3        30.45R
WHEATON        PTCLDY   -15 -20  76 SW5       30.45R WCI -27
MORRIS         PTCLDY   -11 -17  77 W5        30.42R WCI -23
ALEXANDRIA     MOCLDY   -15 -19  82 SW6       30.38R WCI -29
ELBOW LAKE     FAIR     -15 -20  81 S5        30.40S WCI -28
WADENA         MOCLDY   -17 -20  83 SW3       30.36R
GLENWOOD       MOCLDY   -15 -20  76 CALM      30.40R
APPLETON       PTCLDY   -13 -18  77 SW5       30.46R WCI -25
BENSON         PTCLDY   -15 -20  76 CALM      30.43R
ORTONVILLE     PTCLDY   -11 -18  70 SW5       30.43S WCI -23
MADISON        PTCLDY   -11 -17  77 CALM      30.46R
WILLMAR        FAIR     -11 -17  77 CALM      30.44R
$$
MNZ033>034-036-042>043-049>051-058-059-051300-
   Central Minnesota

CITY           SKY/WX    TMP DP  RH WIND       PRES   REMARKS
ST CLOUD       PTCLDY   -12 -17  78 CALM      30.43R
6HR MIN TEMP: -12; 6HR MAX TEMP:  -7;

SAUK CENTRE    FAIR     -17 -21  81 CALM      30.41R
PAYNESVILLE    PTCLDY   -17 -21  82 SW3       30.43R
AITKIN         MOCLDY   -22 -29  69 SW3       30.36S
PINE RIVER     MOCLDY   -27 -33  75 CALM      30.38S
BRAINERD       MOCLDY   -26 -30  81 CALM      30.38R
STAPLES        MOCLDY   -24 -29  76 CALM      30.37S
LONG PRAIRIE   FAIR     -20 -26  76 CALM      30.40R
LITTLE FALLS   MOCLDY   -24 -31  69 CALM      30.42R
LITCHFIELD     CLEAR    -11 -17  77 CALM      30.44R
BUFFALO        CLEAR    -12 -17  78 CALM      30.47R HAZE
MAPLE LAKE     CLEAR    -14 -18  80 CALM      30.45R
$$
MNZ037-044-045-052-053-051300-
   East Central Minnesota

CITY           SKY/WX    TMP DP  RH WIND       PRES   REMARKS
PRINCETON      CLEAR    -17 -22  76 CALM      30.43R
MORA           PTCLDY   -22 -27  76 CALM      30.43R
CAMBRIDGE      PTCLDY   -15 -24  64 CALM      30.43R
RUSH CITY      PTCLDY   -17 -22  78 CALM      30.44R
MOOSE LAKE     FAIR     -17 -22  76 CALM      30.38R
HINCKLEY       FAIR     -22 -26  83 CALM      30.42R
CLOQUET        CLEAR    -15 -20  76 W7        30.34R WCI -31
MCGREGOR       PTCLDY   -18 -24  76 CALM      30.37R
$$
MNZ071>073-080-081-089-090-097-098-051300-
   Southwest Minnesota

CITY           SKY/WX    TMP DP  RH WIND       PRES   REMARKS
MONTEVIDEO     PTCLDY    -9 -15  77 W3        30.47R
GRANITE FALLS  PTCLDY   -11 -16  77 SW3       30.48R
CANBY          CLEAR     -8 -15  72 SW5       30.45R WCI -19
MARSHALL       CLEAR     -8 -15  71 SW7       30.45R WCI -22
REDWOOD FALLS  CLEAR     -8 -14  74 W6        30.47R WCI -21
OLIVIA         CLEAR    -11 -17  77 SW5       30.46R WCI -23
PIPESTONE      PTCLDY   -15 -18  84 CALM      30.40R
WINDOM         CLEAR     -9 -15  77 CALM      30.44R
WORTHINGTON    PTCLDY   -11 -20  64 W8        30.44R WCI -28
JACKSON        CLEAR     -8 -15  71 W6        30.44R WCI -21
TRACY          CLEAR     -7 -14  72 SW8       30.45R WCI -23
SLAYTON        PTCLDY   -10 -17  71 CALM      30.42S
$$
MNZ065>067-074>077-082>085-091>093-051300-
   South Central Minnesota

CITY           SKY/WX    TMP DP  RH WIND       PRES   REMARKS
MANKATO        CLEAR     -8 -11  84 W5        30.46R WCI -19
NEW ULM        CLEAR    -11 -18  70 W6        30.47R WCI -25
ST JAMES       CLEAR     -8 -13  77 SW5       30.48R WCI -19
FAIRMONT       FAIR      -6 -11  77 W6        30.44R WCI -18
GLENCOE        CLEAR     -9 -13  83 MISG      30.46R
FARIBAULT      CLEAR     -9 -15  77 CALM      30.45R
OWATONNA       CLEAR    -11 -18  70 W3        30.44R
WASECA         CLEAR     -9 -13  84 W3        30.46R
ALBERT LEA     CLEAR     -8 -13  77 CALM      30.44R
$$
MNZ078>079-086>088-094>096-051300-
   Southeast Minnesota

CITY           SKY/WX    TMP DP  RH WIND       PRES   REMARKS
ROCHESTER      CLEAR    -11 -15  82 W8        30.41R WCI -28
6HR MIN TEMP: -11; 6HR MAX TEMP:  -5;

RED WING       CLEAR    -15 -20  76 CALM      30.47R
STANTON        CLEAR    -10 -15  76 SW3       30.45R
DODGE CENTER   PTCLDY    -8 -11  84 W7        30.40R WCI -22
WINONA         CLEAR     -6 -11  77 N3        30.49R
AUSTIN         CLEAR     -8 -13  77 NW5       30.43R WCI -19
PRESTON        CLEAR    -11 -17  77 NW7       30.41R WCI -26
$$
ABBREVIATIONS USED IN REMARKS
   TC - TEMPERATURES IN CELSIUS
  WCI - WIND CHILL INDEX
   HX - HEAT INDEX
  VSB - VISIBILITY
$$


USA.gov is the U.S. government's official web portal to all federal, state and local government web resources and services.